This demonstration page uses our WeatherBlox Daily Observations layout. Learn more.

36.17497, -115.13722

Hourly Observations for February 10, 2016

Temp ( °F °C ) Dew Point ( °F °C ) Humidity (%) Winds ( mph kmh ) Pressure ( in mb ) Visibility ( mi km ) Precip ( " mm )
12:53 am 00:53 Clear 51 10.6 26 -3.3 38 38 VRB 5 7 30.3 1026 10 16.0934 0 0
1:53 am 01:53 Clear 51 10.6 27 -2.8 39 39 NNW 5 7 30.3 1026 10 16.0934 0 0
2:53 am 02:53 Clear 53 11.7 26 -3.3 35 35 NNW 12 19 30.3 1026 10 16.0934 0 0
3:53 am 03:53 Clear 49 9.4 26 -3.3 41 41 WNW 6 9 30.32 1027 10 16.0934 0 0
4:53 am 04:53 Clear 50 10 26 -3.3 39 39 Calm 30.32 1027 10 16.0934 0 0
5:53 am 05:53 Clear 46 7.8 26 -3.3 46 46 Calm 30.35 1028 10 16.0934 0 0
6:53 am 06:53 Sunny 46 7.8 26 -3.3 46 46 Calm 30.37 1029 10 16.0934 0 0
7:53 am 07:53 Sunny 51 10.6 27 -2.8 39 39 N 3 6 30.38 1029 10 16.0934 0 0
8:53 am 08:53 Sunny 55 12.8 27 -2.8 34 34 Calm 30.39 1029 10 16.0934 0 0
9:53 am 09:53 Sunny 58 14.4 27 -2.8 31 31 Calm 30.4 1029 10 16.0934 0 0
10:53 am 10:53 Sunny 64 17.8 27 -2.8 25 25 Calm 30.37 1029 10 16.0934 0 0
11:53 am 11:53 Sunny 66 18.9 26 -3.3 22 22 VRB 3 6 30.33 1027 10 16.0934 0 0
12:53 pm 12:53 Sunny 68 20 26 -3.3 21 21 S 7 11 30.29 1026 10 16.0934 0 0
1:53 pm 13:53 Sunny 69 20.6 26 -3.3 20 20 Calm 30.27 1025 10 16.0934 0 0
2:53 pm 14:53 Sunny 70 21.1 24 -4.4 18 18 Calm 30.25 1024 10 16.0934 0 0
3:53 pm 15:53 Sunny 70 21.1 24 -4.4 18 18 Calm 30.25 1024 10 16.0934 0 0
4:53 pm 16:53 Sunny 69 20.6 24 -4.4 18 18 Calm 30.24 1024 10 16.0934 0 0
5:53 pm 17:53 Clear 67 19.4 25 -3.9 20 20 Calm 30.26 1025 10 16.0934 0 0
6:53 pm 18:53 Clear 61 16.1 27 -2.8 27 27 WNW 3 6 30.27 1025 10 16.0934 0 0
7:53 pm 19:53 Clear 57 13.9 29 -1.7 34 34 NNW 7 11 30.27 1025 10 16.0934 0 0
8:53 pm 20:53 Clear 55 12.8 29 -1.7 37 37 NNW 6 9 30.27 1025 10 16.0934 0 0
9:53 pm 21:53 Clear 54 12.2 29 -1.7 38 38 WNW 6 9 30.28 1026 10 16.0934 0 0
10:53 pm 22:53 Clear 53 11.7 28 -2.2 38 38 NW 7 11 30.27 1025 10 16.0934 0 0
11:53 pm 23:53 Clear 54 12.2 25 -3.9 33 33 WNW 8 13 30.27 1025 10 16.0934 0 0

Powered by AerisWeather